• In Uzbekistan
  • List of Countries
  • For 7 days
  • Water Temperature
  • Satellite Maps
  • Weather Map
  • Weather Widgets
  • user-avatar
    Login

    Hourly Weather Mazatan

    Today, 26 September, Wednesday

    Time Temperature Precipitation Wind Pressure Humidity
    00:00 +27°C° 0 mm 2 mps 758 mmHg 79%
    01:00 +27°C° 0.3 mm 2 mps 757 mmHg 79%
    02:00 +27°C° 0.3 mm 2 mps 757 mmHg 78%
    03:00 +27°C° 0.3 mm 2 mps 757 mmHg 77%
    04:00 +27°C° 0.1 mm 2 mps 757 mmHg 76%
    05:00 +27°C° 0.1 mm 2 mps 757 mmHg 76%
    06:00 +27°C° 0.1 mm 2 mps 757 mmHg 75%
    07:00 +28°C° 0.1 mm 1 mps 757 mmHg 72%
    08:00 +30°C° 0.1 mm 1 mps 757 mmHg 69%
    09:00 +31°C° 0.1 mm 1 mps 758 mmHg 66%
    10:00 +32°C° 0 mm 1 mps 757 mmHg 65%
    11:00 +33°C° 0 mm 1 mps 757 mmHg 63%
    12:00 +34°C° 0 mm 1 mps 757 mmHg 61%
    13:00 +33°C° 0.4 mm 1 mps 756 mmHg 64%
    14:00 +34°C° 0.4 mm 2 mps 756 mmHg 68%
    15:00 +32°C° 0.4 mm 2 mps 755 mmHg 72%
    16:00 +31°C° 0.7 mm 2 mps 755 mmHg 76%
    17:00 +30°C° 0.7 mm 2 mps 756 mmHg 80%
    18:00 +29°C° 0.7 mm 2 mps 756 mmHg 84%
    19:00 +28°C° 0.4 mm 2 mps 756 mmHg 83%
    20:00 +28°C° 0.4 mm 2 mps 757 mmHg 82%
    21:00 +27°C° 0.4 mm 2 mps 757 mmHg 81%
    22:00 +27°C° 0.3 mm 2 mps 757 mmHg 80%
    23:00 +27°C° 0.3 mm 2 mps 758 mmHg 79%

    Tomorrow, 27 September, Thursday

    Time Temperature Precipitation Wind Pressure Humidity
    00:00 +27°C° 0.3 mm 2 mps 758 mmHg 78%
    01:00 +26°C° 1.2 mm 2 mps 757 mmHg 78%
    02:00 +26°C° 1.2 mm 3 mps 757 mmHg 79%
    03:00 +26°C° 1.2 mm 3 mps 756 mmHg 80%
    04:00 +26°C° 0.8 mm 3 mps 757 mmHg 81%
    05:00 +26°C° 0.8 mm 2 mps 757 mmHg 81%
    06:00 +26°C° 0.8 mm 1 mps 757 mmHg 82%
    07:00 +27°C° 0.3 mm 1 mps 757 mmHg 79%
    08:00 +28°C° 0.3 mm 1 mps 758 mmHg 75%
    09:00 +30°C° 0.3 mm 1 mps 758 mmHg 71%
    10:00 +31°C° 0.1 mm 1 mps 758 mmHg 68%
    11:00 +32°C° 0.1 mm 1 mps 758 mmHg 65%
    12:00 +33°C° 0.1 mm 1 mps 757 mmHg 61%
    13:00 +34°C° 0.1 mm 2 mps 757 mmHg 63%
    14:00 +32°C° 0.1 mm 2 mps 756 mmHg 64%
    15:00 +32°C° 0.1 mm 2 mps 755 mmHg 65%
    16:00 +31°C° 0 mm 2 mps 755 mmHg 71%
    17:00 +30°C° 0 mm 1 mps 756 mmHg 76%
    18:00 +29°C° 0 mm 1 mps 756 mmHg 81%
    19:00 +28°C° 0.1 mm 1 mps 757 mmHg 80%
    20:00 +28°C° 0.1 mm 1 mps 757 mmHg 80%
    21:00 +28°C° 0.1 mm 1 mps 758 mmHg 79%
    22:00 +28°C° 0.1 mm 1 mps 758 mmHg 78%
    23:00 +27°C° 0.1 mm 1 mps 758 mmHg 78%

    Day after tomorrow, 28 September, Friday

    Time Temperature Precipitation Wind Pressure Humidity
    00:00 +27°C° 0.1 mm 1 mps 758 mmHg 78%
    01:00 +27°C° 0 mm 1 mps 757 mmHg 77%
    02:00 +27°C° 0 mm 1 mps 757 mmHg 77%
    03:00 +27°C° 0 mm 1 mps 756 mmHg 77%
    04:00 +27°C° 0 mm 1 mps 757 mmHg 76%
    05:00 +27°C° 0 mm 1 mps 757 mmHg 75%
    06:00 +26°C° 0 mm 2 mps 757 mmHg 74%
    07:00 +28°C° 0 mm 1 mps 757 mmHg 70%
    08:00 +30°C° 0 mm 1 mps 758 mmHg 66%
    09:00 +32°C° 0 mm 1 mps 758 mmHg 62%
    10:00 +34°C° 0 mm 2 mps 758 mmHg 61%
    11:00 +35°C° 0 mm 2 mps 757 mmHg 60%
    12:00 +36°C° 0 mm 3 mps 757 mmHg 58%
    13:00 +35°C° 0.2 mm 3 mps 756 mmHg 62%
    14:00 +35°C° 0.2 mm 3 mps 755 mmHg 65%
    15:00 +34°C° 0.2 mm 3 mps 755 mmHg 69%
    16:00 +33°C° 0.3 mm 3 mps 755 mmHg 74%
    17:00 +30°C° 0.3 mm 2 mps 755 mmHg 80%
    18:00 +29°C° 0.3 mm 2 mps 756 mmHg 86%
    19:00 +29°C° 0.4 mm 2 mps 757 mmHg 86%
    20:00 +28°C° 0.4 mm 2 mps 757 mmHg 86%
    21:00 +28°C° 0.4 mm 2 mps 758 mmHg 86%
    22:00 +27°C° 0.3 mm 2 mps 758 mmHg 85%
    23:00 +27°C° 0.3 mm 2 mps 758 mmHg 84%

    29 September, Saturday

    Time Temperature Precipitation Wind Pressure Humidity
    00:00 +27°C° 0.3 mm 2 mps 758 mmHg 82%
    01:00 +27°C° 0 mm 2 mps 757 mmHg 80%
    02:00 +27°C° 0 mm 2 mps 757 mmHg 79%
    03:00 +27°C° 0 mm 2 mps 756 mmHg 77%
    04:00 +27°C° 0 mm 2 mps 757 mmHg 76%
    05:00 +26°C° 0 mm 2 mps 757 mmHg 74%
    06:00 +26°C° 0 mm 2 mps 757 mmHg 73%
    07:00 +29°C° 0 mm 2 mps 757 mmHg 69%
    08:00 +31°C° 0 mm 2 mps 758 mmHg 64%
    09:00 +34°C° 0 mm 2 mps 758 mmHg 60%
    10:00 +35°C° 0 mm 2 mps 757 mmHg 60%
    11:00 +36°C° 0 mm 2 mps 757 mmHg 59%
    12:00 +37°C° 0 mm 3 mps 756 mmHg 58%
    13:00 +36°C° 0.3 mm 3 mps 756 mmHg 63%
    14:00 +35°C° 0.3 mm 3 mps 755 mmHg 67%
    15:00 +35°C° 0.3 mm 2 mps 754 mmHg 71%
    16:00 +32°C° 0.4 mm 2 mps 755 mmHg 76%
    17:00 +31°C° 0.4 mm 2 mps 755 mmHg 81%
    18:00 +30°C° 0.4 mm 1 mps 755 mmHg 86%
    19:00 +29°C° 0 mm 1 mps 756 mmHg 85%
    20:00 +28°C° 0 mm 1 mps 757 mmHg 85%
    21:00 +28°C° 0 mm 1 mps 758 mmHg 84%
    22:00 +28°C° 0.3 mm 1 mps 757 mmHg 82%
    23:00 +27°C° 0.3 mm 1 mps 757 mmHg 80%

    30 September, Sunday

    Time Temperature Precipitation Wind Pressure Humidity
    00:00 +27°C° 0.3 mm 1 mps 757 mmHg 77%
    01:00 +27°C° 0.3 mm 1 mps 757 mmHg 75%
    02:00 +27°C° 0.3 mm 1 mps 756 mmHg 72%
    03:00 +27°C° 0.3 mm 1 mps 756 mmHg 70%
    04:00 +27°C° 0 mm 1 mps 756 mmHg 69%
    05:00 +27°C° 0 mm 1 mps 757 mmHg 67%
    06:00 +27°C° 0 mm 1 mps 757 mmHg 66%
    07:00 +29°C° 0 mm 2 mps 757 mmHg 63%
    08:00 +31°C° 0 mm 2 mps 758 mmHg 60%
    09:00 +34°C° 0 mm 2 mps 758 mmHg 57%
    10:00 +35°C° 0 mm 2 mps 757 mmHg 57%
    11:00 +35°C° 0 mm 2 mps 757 mmHg 56%
    12:00 +36°C° 0 mm 2 mps 757 mmHg 56%
    13:00 +36°C° 0.2 mm 2 mps 756 mmHg 60%
    14:00 +35°C° 0.2 mm 2 mps 755 mmHg 64%
    15:00 +34°C° 0.2 mm 2 mps 755 mmHg 68%
    16:00 +32°C° 0.4 mm 2 mps 755 mmHg 73%
    17:00 +31°C° 0.4 mm 2 mps 756 mmHg 79%
    18:00 +29°C° 0.4 mm 1 mps 756 mmHg 84%
    19:00 +29°C° 1.4 mm 1 mps 757 mmHg 84%
    20:00 +28°C° 1.4 mm 2 mps 757 mmHg 85%
    21:00 +28°C° 1.4 mm 2 mps 758 mmHg 85%
    22:00 +27°C° 0.6 mm 2 mps 758 mmHg 84%
    23:00 +27°C° 0.6 mm 2 mps 758 mmHg 83%

    1 October, Monday

    Time Temperature Precipitation Wind Pressure Humidity
    00:00 +27°C° 0.6 mm 2 mps 758 mmHg 82%
    01:00 +27°C° 0.5 mm 2 mps 757 mmHg 80%
    02:00 +26°C° 0.5 mm 2 mps 757 mmHg 78%
    03:00 +26°C° 0.5 mm 1 mps 757 mmHg 76%
    04:00 +26°C° 0.1 mm 2 mps 757 mmHg 75%
    05:00 +26°C° 0.1 mm 2 mps 757 mmHg 73%
    06:00 +26°C° 0.1 mm 2 mps 758 mmHg 71%
    07:00 +28°C° 0 mm 1 mps 758 mmHg 66%
    08:00 +30°C° 0 mm 1 mps 758 mmHg 62%
    09:00 +32°C° 0 mm 1 mps 758 mmHg 57%
    10:00 +33°C° 0 mm 1 mps 758 mmHg 58%
    11:00 +35°C° 0 mm 2 mps 757 mmHg 58%
    12:00 +36°C° 0 mm 2 mps 757 mmHg 58%
    13:00 +35°C° 0.3 mm 2 mps 756 mmHg 62%
    14:00 +35°C° 0.3 mm 2 mps 756 mmHg 66%
    15:00 +34°C° 0.3 mm 2 mps 755 mmHg 69%
    16:00 +32°C° 0.5 mm 2 mps 755 mmHg 74%
    17:00 +31°C° 0.5 mm 2 mps 756 mmHg 79%
    18:00 +29°C° 0.5 mm 2 mps 756 mmHg 84%
    19:00 +29°C° 1.5 mm 2 mps 757 mmHg 86%
    20:00 +28°C° 1.5 mm 2 mps 757 mmHg 87%
    21:00 +28°C° 1.5 mm 2 mps 758 mmHg 88%
    22:00 +27°C° 0.8 mm 2 mps 758 mmHg 87%
    23:00 +27°C° 0.8 mm 2 mps 758 mmHg 86%
    Show more